Back to catalog

FENGYUN 1C DEB

AliveSSO
NORAD 29766·DEBRIS·🇨🇳 China

Launched May 10, 1999 from Taiyuan Satellite Launch Center

Loading…

Next Passes (next 24 hours)

TLE

FreshSource: Space-Track

Epoch: Sep 14, 2026, 07:40 UTC

1 29766U 99025BG  26257.31995402  .00000757  00000-0  51723-3 0  9990
2 29766  98.7002 197.3708 0142690 242.7793 272.6917 13.97900727996530

Track FENGYUN 1C DEB in real time with AllMySat

Download on the App Store